DW3201 Weather Reports


Display with metric or nautical units.
time (UTC)temp
F
wind
direction
speed
MPH
gust
MPH
rain 1hr
in
rain 24hr
in
rain mn
in
humidity
%
barometer
mb
20260902191600 89 276 1.0 6.0 0.00 0.04 0.00 61 1012.7
20260902190100 89 259 0.0 6.0 0.00 0.04 0.00 63 1012.7
20260902184645 90 243 1.0 3.0 0.00 0.04 0.00 63 1012.8
20260902183105 89 0 1.0 5.0 0.00 0.04 0.00 64 1012.8
20260902181603 89 253 0.0 2.0 0.00 0.04 0.00 65 1012.9
20260902180113 88 245 0.0 4.0 0.00 0.04 0.00 66 1013.0
20260902174609 87 255 2.0 5.0 0.00 0.04 0.00 65 1013.3
20260902173107 88 0 0.0 5.0 0.00 0.04 0.00 66 1013.3
20260902171602 87 0 0.0 3.0 0.00 0.04 0.00 67 1013.3
20260902170105 86 264 2.0 3.0 0.00 0.04 0.00 68 1013.4
20260902164605 86 257 0.0 1.0 0.00 0.04 0.00 70 1013.3
20260902163120 85 260 0.0 1.0 0.00 0.04 0.00 74 1013.5
20260902161605 83 0 0.0 3.0 0.00 0.04 0.00 78 1013.5
20260902160059 82 0 0.0 4.0 0.00 0.04 0.00 79 1013.3
20260902154607 81 94 2.0 7.0 0.00 0.05 0.00 80 1013.2
20260902153104 80 78 3.0 6.0 0.00 0.05 0.00 81 1013.3
20260902151603 80 82 3.0 6.0 0.00 0.05 0.00 80 1013.4
20260902150103 79 108 4.0 8.0 0.00 0.05 0.00 81 1013.4
20260902144602 78 108 4.0 9.0 0.00 0.05 0.00 82 1013.6
20260902143107 77 93 4.0 7.0 0.00 0.05 0.00 83 1013.6
20260902141603 76 71 2.0 6.0 0.00 0.05 0.00 84 1013.9
20260902140107 76 78 1.0 3.0 0.00 0.05 0.00 84 1014.2
20260902134601 76 65 0.0 2.0 0.00 0.05 0.00 84 1014.3
20260902133105 75 77 3.0 5.0 0.00 0.05 0.00 85 1014.1
20260902131608 75 99 4.0 6.0 0.00 0.05 0.00 87 1014.3
20260902124606 73 0 1.0 2.0 0.00 0.05 0.00 93 1014.6
20260902123106 72 0 0.0 1.0 0.00 0.05 0.00 94 1014.7
20260902121609 72 198 0.0 1.0 0.00 0.05 0.00 94 1014.6
20260902120121 72 110 1.0 5.0 0.00 0.05 0.00 94 1014.6
20260902114602 72 0 0.0 0.0 0.00 0.05 0.00 94 1014.1
20260902113108 72 273 0.0 2.0 0.00 0.05 0.00 94 1014.1
20260902111625 72 0 0.0 0.0 0.00 0.05 0.00 93 1013.3
20260902110103 72 249 0.0 1.0 0.00 0.05 0.00 93 1013.4
20260902104615 72 0 0.0 0.0 0.00 0.05 0.00 93 1013.5
20260902103123 73 255 0.0 1.0 0.00 0.05 0.00 92 1013.5
20260902101603 73 0 0.0 2.0 0.00 0.05 0.00 91 1013.4
20260902100110 73 218 0.0 3.0 0.00 0.05 0.00 91 1013.6
20260902094606 74 195 0.0 3.0 0.00 0.05 0.00 91 1013.6
20260902093105 73 278 1.0 2.0 0.00 0.05 0.00 95 1013.3
20260902091610 72 0 0.0 1.0 0.00 0.05 0.00 95 1013.3
20260902090104 73 0 0.0 0.0 0.00 0.05 0.00 95 1013.3
20260902084607 73 0 0.0 0.0 0.00 0.05 0.00 95 1013.4
20260902083114 73 0 0.0 0.0 0.00 0.05 0.00 95 1013.4
20260902081601 73 0 0.0 0.0 0.00 0.05 0.00 95 1013.3
20260902080059 73 0 0.0 0.0 0.00 0.05 0.00 95 1013.1
20260902074619 74 0 0.0 0.0 0.00 0.05 0.00 95 1013.2
20260902073059 74 0 0.0 0.0 0.00 0.05 0.00 95 1013.2
20260902071602 74 0 0.0 0.0 0.00 0.05 0.00 95 1013.1
20260902070106 74 0 0.0 0.0 0.00 0.05 0.00 95 1013.2
20260902064601 74 0 0.0 0.0 0.00 0.05 0.00 95 1013.3
20260902063103 75 0 0.0 0.0 0.00 0.05 0.00 94 1013.3
20260902061603 75 0 0.0 0.0 0.00 0.05 0.00 95 1013.3
20260902060107 75 0 0.0 0.0 0.00 0.05 0.00 94 1013.5
20260902054609 75 0 0.0 1.0 0.00 0.05 0.00 95 1013.4
20260902053113 75 0 0.0 1.0 0.00 0.05 0.00 95 1013.3
20260902051624 75 0 0.0 0.0 0.00 0.05 0.00 95 1013.2
20260902050110 75 0 0.0 0.0 0.00 0.05 0.00 95 1013.1
20260902044609 75 0 0.0 0.0 0.00 0.05 0.05 95 1013.2
20260902043121 76 0 0.0 0.0 0.00 0.05 0.05 95 1013.3
20260902041603 76 0 0.0 0.0 0.00 0.05 0.05 95 1013.3
20260902040105 76 0 0.0 0.0 0.00 0.05 0.05 95 1013.1
20260902034601 77 0 0.0 0.0 0.00 0.05 0.05 95 1013.2
20260902033057 77 0 0.0 1.0 0.00 0.05 0.05 95 1013.3
20260902031601 76 0 0.0 0.0 0.00 0.05 0.05 94 1013.4
20260902030057 77 0 0.0 0.0 0.00 0.05 0.05 94 1013.5
20260902024600 77 0 0.0 0.0 0.00 0.05 0.05 94 1013.4
20260902023108 77 0 0.0 0.0 0.00 0.05 0.05 94 1013.5
20260902021604 77 0 0.0 0.0 0.00 0.05 0.05 94 1013.7
20260902020059 78 0 0.0 0.0 0.00 0.05 0.05 93 1013.8
20260902014601 78 0 0.0 0.0 0.00 0.05 0.05 93 1013.5
20260902013059 78 0 0.0 0.0 0.00 0.05 0.05 93 1013.2
20260902011630 78 0 0.0 0.0 0.00 0.05 0.05 92 1013.2
20260902010058 79 0 0.0 0.0 0.00 0.05 0.05 92 1013.1
20260902004604 79 0 0.0 0.0 0.00 0.05 0.05 91 1013.0
20260902003105 79 0 0.0 0.0 0.00 0.05 0.05 90 1012.9
20260902001600 80 0 0.0 0.0 0.00 0.05 0.05 88 1012.8
20260902000106 81 0 0.0 0.0 0.00 0.05 0.05 87 1012.7
20260901234611 81 0 0.0 0.0 0.00 0.05 0.05 87 1012.8
20260901233108 81 0 0.0 0.0 0.00 0.05 0.05 85 1012.8
20260901231620 81 49 0.0 2.0 0.00 0.05 0.05 83 1012.4
20260901230113 83 79 0.0 1.0 0.00 0.05 0.05 81 1012.4
20260901224602 83 0 0.0 1.0 0.00 0.05 0.05 80 1013.0
20260901223103 82 0 0.0 1.0 0.00 0.05 0.05 81 1013.1
20260901221625 83 251 0.0 1.0 0.00 0.05 0.05 80 1013.3
20260901220118 84 0 0.0 1.0 0.00 0.05 0.05 78 1013.1
20260901214558 83 0 0.0 2.0 0.00 0.05 0.05 79 1013.0
20260901213110 83 253 0.0 2.0 0.00 0.05 0.05 79 1013.3
20260901211559 83 0 0.0 1.0 0.00 0.05 0.05 80 1013.3
20260901210116 82 0 1.0 4.0 0.01 0.05 0.05 79 1013.4
20260901204613 82 0 0.0 2.0 0.02 0.05 0.05 82 1013.4
20260901203104 81 263 0.0 4.0 0.02 0.05 0.05 81 1013.4
20260901201600 80 260 1.0 3.0 0.04 0.05 0.05 87 1013.6
20260901200116 80 249 3.0 7.0 0.03 0.04 0.04 86 1013.9
20260901194611 80 243 1.0 3.0 0.02 0.03 0.03 91 1014.1
20260901193103 81 267 0.0 1.0 0.02 0.03 0.03 89 1013.8
20260901191636 82 0 0.0 2.0 0.00 0.01 0.01 84 1013.6